EWG356 EDDL-EDDF

Flight info

Callsign EWG356
Flight time 0h 29m
Altitude 23000
Route COL6T COL T911 ROLIS ROLIS5A
Aircraft A339/H-SADE1E2E3GHIJ3J5M1P2RWXY/LB2D1

Departure

Time 2026-05-07 09:06
Airport Düsseldorf Airport (EDDL)

Arrival

Time 2026-05-07 09:36
Airport Frankfurt Main Airport (EDDF)
Time Latitude Longitude Altitude Speed Heading
2026-05-07 08:54 51.27900 6.76244 136 ft 0 kts 45°
2026-05-07 08:55 51.27886 6.76221 136 ft 4 kts 51°
2026-05-07 08:55 51.27869 6.76187 136 ft 4 kts 58°
2026-05-07 08:55 51.27856 6.76151 136 ft 4 kts 62°
2026-05-07 08:56 51.27843 6.76113 136 ft 4 kts 59°
2026-05-07 08:56 51.27829 6.76078 136 ft 4 kts 40°
2026-05-07 08:56 51.27813 6.76056 136 ft 4 kts 25°
2026-05-07 08:56 51.27789 6.76041 136 ft 4 kts
2026-05-07 08:57 51.27763 6.76042 136 ft 4 kts 359°
2026-05-07 08:57 51.27757 6.76042 136 ft 0 kts
2026-05-07 09:01 51.27774 6.76043 136 ft 8 kts
2026-05-07 09:01 51.27880 6.76046 136 ft 18 kts
2026-05-07 09:01 51.27967 6.76048 136 ft 20 kts
2026-05-07 09:01 51.28111 6.76043 136 ft 20 kts
2026-05-07 09:02 51.28191 6.76163 128 ft 15 kts 54°
2026-05-07 09:02 51.28278 6.76338 123 ft 26 kts 52°
2026-05-07 09:02 51.28394 6.76582 126 ft 29 kts 53°
2026-05-07 09:02 51.28519 6.76840 129 ft 29 kts 52°
2026-05-07 09:03 51.28645 6.77101 136 ft 30 kts 52°
2026-05-07 09:03 51.28774 6.77373 136 ft 31 kts 53°
2026-05-07 09:03 51.28907 6.77656 136 ft 32 kts 53°
2026-05-07 09:03 51.29046 6.77943 137 ft 33 kts 52°
2026-05-07 09:04 51.29114 6.78085 139 ft 1 kts 52°
2026-05-07 09:04 51.29121 6.78099 139 ft 2 kts 53°
2026-05-07 09:04 51.29142 6.78145 141 ft 10 kts 53°
2026-05-07 09:04 51.29207 6.78213 143 ft 12 kts
2026-05-07 09:05 51.29241 6.78198 144 ft 0 kts 337°
2026-05-07 09:05 51.29254 6.78188 144 ft 10 kts 335°
2026-05-07 09:05 51.29320 6.78105 149 ft 12 kts 303°
2026-05-07 09:05 51.29290 6.77985 147 ft 13 kts 232°
2026-05-07 09:06 51.29216 6.77834 143 ft 27 kts 232°
2026-05-07 09:06 51.28858 6.77080 136 ft 142 kts 233°
2026-05-07 09:06 51.28103 6.75616 696 ft 178 kts 230°
2026-05-07 09:06 51.27195 6.74123 1593 ft 200 kts 229°
2026-05-07 09:07 51.26275 6.72407 2610 ft 204 kts 234°
2026-05-07 09:07 51.25374 6.70490 3417 ft 227 kts 236°
2026-05-07 09:07 51.24452 6.68333 4202 ft 243 kts 240°
2026-05-07 09:07 51.23528 6.65991 4833 ft 264 kts 238°
2026-05-07 09:08 51.22139 6.63921 5710 ft 273 kts 211°
2026-05-07 09:08 51.20327 6.63016 6739 ft 277 kts 185°
2026-05-07 09:08 51.18392 6.63195 7696 ft 281 kts 171°
2026-05-07 09:08 51.16485 6.63815 8644 ft 286 kts 163°
2026-05-07 09:09 51.14734 6.65310 9643 ft 288 kts 139°
2026-05-07 09:09 51.13496 6.67816 10517 ft 295 kts 116°
2026-05-07 09:09 51.12984 6.70283 10831 ft 312 kts 98°
2026-05-07 09:09 51.12947 6.73847 11165 ft 334 kts 85°
2026-05-07 09:10 51.13184 6.77607 11787 ft 345 kts 82°
2026-05-07 09:10 51.13452 6.81426 12564 ft 350 kts 83°
2026-05-07 09:10 51.13678 6.85319 13372 ft 355 kts 84°
2026-05-07 09:10 51.13860 6.89276 14142 ft 361 kts 85°
2026-05-07 09:11 51.14015 6.93287 14903 ft 364 kts 85°
2026-05-07 09:11 51.14158 6.97330 15646 ft 368 kts 86°
2026-05-07 09:11 51.14298 7.01421 16392 ft 372 kts 86°
2026-05-07 09:11 51.14437 7.05550 17120 ft 375 kts 86°
2026-05-07 09:12 51.14383 7.09719 17831 ft 380 kts 94°
2026-05-07 09:12 51.13951 7.13898 18526 ft 384 kts 103°
2026-05-07 09:12 51.13274 7.18034 19190 ft 387 kts 104°
2026-05-07 09:12 51.12586 7.22195 19826 ft 391 kts 106°
2026-05-07 09:13 51.11419 7.26126 20449 ft 396 kts 123°
2026-05-07 09:13 51.09627 7.29374 21112 ft 399 kts 139°
2026-05-07 09:13 51.07337 7.31903 21793 ft 402 kts 149°
2026-05-07 09:13 51.04896 7.34124 22438 ft 407 kts 151°
2026-05-07 09:14 51.02415 7.36330 22901 ft 411 kts 151°
2026-05-07 09:14 50.99926 7.38607 23027 ft 417 kts 150°
2026-05-07 09:14 50.97395 7.40996 23037 ft 425 kts 149°
2026-05-07 09:14 50.94876 7.43419 23037 ft 424 kts 149°
2026-05-07 09:15 50.92358 7.45861 23036 ft 424 kts 148°
2026-05-07 09:15 50.89844 7.48302 23033 ft 424 kts 148°
2026-05-07 09:15 50.87327 7.50742 23033 ft 424 kts 148°
2026-05-07 09:15 50.84809 7.53179 23033 ft 424 kts 148°
2026-05-07 09:16 50.82288 7.55614 23029 ft 424 kts 148°
2026-05-07 09:16 50.79772 7.58039 22854 ft 422 kts 148°
2026-05-07 09:16 50.77191 7.60247 22025 ft 423 kts 155°
2026-05-07 09:16 50.74467 7.62081 20800 ft 430 kts 158°
2026-05-07 09:17 50.71718 7.63881 19941 ft 424 kts 158°
2026-05-07 09:17 50.69043 7.65636 19378 ft 407 kts 157°
2026-05-07 09:17 50.66488 7.67321 18929 ft 390 kts 157°
2026-05-07 09:17 50.64021 7.68954 18283 ft 380 kts 157°
2026-05-07 09:18 50.61615 7.70548 17640 ft 369 kts 157°
2026-05-07 09:18 50.59264 7.72108 17066 ft 373 kts 157°
2026-05-07 09:18 50.56790 7.73747 16426 ft 394 kts 157°
2026-05-07 09:18 50.54281 7.75406 15784 ft 397 kts 158°
2026-05-07 09:19 50.51721 7.77097 15130 ft 391 kts 158°
2026-05-07 09:19 50.49281 7.78708 14508 ft 378 kts 158°
2026-05-07 09:19 50.46894 7.80281 13898 ft 365 kts 158°
2026-05-07 09:19 50.44598 7.81844 13250 ft 353 kts 154°
2026-05-07 09:20 50.42513 7.83742 12777 ft 338 kts 146°
2026-05-07 09:20 50.40621 7.86035 12509 ft 360 kts 141°
2026-05-07 09:20 50.38638 7.88542 12159 ft 367 kts 141°
2026-05-07 09:20 50.36661 7.91017 11912 ft 359 kts 141°
2026-05-07 09:21 50.34752 7.93388 11732 ft 341 kts 141°
2026-05-07 09:21 50.32945 7.95623 11533 ft 319 kts 141°
2026-05-07 09:21 50.31244 7.97724 11064 ft 306 kts 141°
2026-05-07 09:21 50.29585 7.99773 10545 ft 297 kts 141°
2026-05-07 09:22 50.27992 8.01738 10306 ft 294 kts 141°
2026-05-07 09:22 50.26411 8.03804 10045 ft 298 kts 135°
2026-05-07 09:22 50.25085 8.06224 9792 ft 294 kts 126°
2026-05-07 09:22 50.23643 8.08472 9530 ft 295 kts 143°
2026-05-07 09:23 50.21955 8.10268 9263 ft 293 kts 141°
2026-05-07 09:23 50.20670 8.12695 9044 ft 290 kts 116°
2026-05-07 09:23 50.20134 8.15699 9024 ft 287 kts 94°
2026-05-07 09:23 50.19956 8.18817 9018 ft 289 kts 93°
2026-05-07 09:24 50.19773 8.21925 9021 ft 288 kts 93°
2026-05-07 09:24 50.19590 8.25046 9018 ft 288 kts 93°
2026-05-07 09:24 50.19406 8.28158 9019 ft 288 kts 93°
2026-05-07 09:24 50.19222 8.31275 9017 ft 289 kts 93°
2026-05-07 09:25 50.19040 8.34386 8985 ft 288 kts 93°
2026-05-07 09:25 50.18857 8.37500 8733 ft 287 kts 93°
2026-05-07 09:25 50.18673 8.40616 8474 ft 293 kts 93°
2026-05-07 09:25 50.18486 8.43809 8213 ft 296 kts 93°
2026-05-07 09:26 50.18399 8.46998 7940 ft 293 kts 86°
2026-05-07 09:26 50.18547 8.50160 7645 ft 291 kts 83°
2026-05-07 09:26 50.18708 8.53294 7332 ft 289 kts 83°
2026-05-07 09:26 50.18872 8.56429 7040 ft 289 kts 83°
2026-05-07 09:27 50.19032 8.59548 6744 ft 288 kts 83°
2026-05-07 09:27 50.19187 8.62638 6455 ft 286 kts 83°
2026-05-07 09:27 50.19501 8.68800 5821 ft 282 kts 83°
2026-05-07 09:28 50.19654 8.71855 5514 ft 281 kts 83°
2026-05-07 09:28 50.19807 8.74879 5197 ft 280 kts 83°
2026-05-07 09:28 50.19960 8.77900 4901 ft 278 kts 83°
2026-05-07 09:28 50.20109 8.80855 4600 ft 277 kts 83°
2026-05-07 09:29 50.20258 8.83836 4281 ft 275 kts 83°
2026-05-07 09:29 50.20405 8.86819 4046 ft 274 kts 84°
2026-05-07 09:29 50.20208 8.89770 3992 ft 278 kts 106°
2026-05-07 09:29 50.19235 8.92365 3984 ft 282 kts 131°
2026-05-07 09:30 50.17640 8.94107 3983 ft 283 kts 157°
2026-05-07 09:30 50.15763 8.94632 3985 ft 270 kts 184°
2026-05-07 09:30 50.13968 8.93846 3989 ft 268 kts 210°
2026-05-07 09:30 50.12528 8.92061 3983 ft 266 kts 224°
2026-05-07 09:31 50.11240 8.90151 3967 ft 239 kts 236°
2026-05-07 09:31 50.10657 8.87916 3989 ft 213 kts 260°
2026-05-07 09:31 50.10348 8.85756 3990 ft 196 kts 259°
2026-05-07 09:31 50.09980 8.83766 3844 ft 189 kts 255°
2026-05-07 09:32 50.09533 8.81830 3573 ft 190 kts 251°
2026-05-07 09:32 50.09069 8.79913 3309 ft 189 kts 253°
2026-05-07 09:32 50.08615 8.77987 3042 ft 189 kts 252°
2026-05-07 09:32 50.08160 8.76091 2812 ft 184 kts 252°
2026-05-07 09:33 50.07718 8.74236 2567 ft 190 kts 253°
2026-05-07 09:33 50.07255 8.72284 2280 ft 187 kts 252°
2026-05-07 09:33 50.06819 8.70465 2026 ft 173 kts 252°
2026-05-07 09:33 50.06413 8.68749 1799 ft 173 kts 252°
2026-05-07 09:34 50.05989 8.66971 1566 ft 180 kts 252°
2026-05-07 09:34 50.05543 8.65125 1266 ft 176 kts 252°
2026-05-07 09:34 50.05131 8.63349 1104 ft 177 kts 252°
2026-05-07 09:34 50.04701 8.61560 832 ft 173 kts 251°
2026-05-07 09:35 50.04295 8.59920 575 ft 152 kts 251°
2026-05-07 09:35 50.03957 8.58470 390 ft 135 kts 252°
2026-05-07 09:35 50.03684 8.57301 366 ft 90 kts 248°
2026-05-07 09:35 50.03514 8.56595 364 ft 51 kts 249°
2026-05-07 09:36 50.03442 8.56211 359 ft 25 kts 262°
2026-05-07 09:36 50.03450 8.55936 358 ft 22 kts 278°
2026-05-07 09:36 50.03468 8.55756 356 ft 10 kts 278°
2026-05-07 09:36 50.03479 8.55645 357 ft 11 kts 278°
2026-05-07 09:37 50.03480 8.55630 353 ft 0 kts 278°
2026-05-07 09:37 50.03488 8.55551 351 ft 11 kts 278°
2026-05-07 09:37 50.03480 8.55412 355 ft 17 kts 252°
2026-05-07 09:38 50.03426 8.55211 354 ft 22 kts 248°
2026-05-07 09:38 50.03369 8.54974 354 ft 25 kts 251°
2026-05-07 09:38 50.03310 8.54710 353 ft 23 kts 250°
2026-05-07 09:38 50.03289 8.54521 349 ft 15 kts 295°
2026-05-07 09:39 50.03323 8.54479 348 ft 0 kts 332°
2026-05-07 09:39 50.03324 8.54478 349 ft 2 kts 332°
2026-05-07 09:40 50.03388 8.54434 350 ft 18 kts 338°
2026-05-07 09:40 50.03511 8.54365 354 ft 20 kts 342°
2026-05-07 09:40 50.03609 8.54306 355 ft 12 kts 340°
2026-05-07 09:40 50.03672 8.54379 353 ft 17 kts 61°
2026-05-07 09:41 50.03724 8.54581 359 ft 21 kts 68°
2026-05-07 09:41 50.03782 8.54804 361 ft 23 kts 70°
2026-05-07 09:41 50.03816 8.54946 360 ft 8 kts 71°
2026-05-07 09:41 50.03848 8.55094 355 ft 17 kts 71°
2026-05-07 09:42 50.03893 8.55287 360 ft 21 kts 69°
2026-05-07 09:42 50.03950 8.55513 357 ft 24 kts 69°
2026-05-07 09:42 50.04009 8.55773 362 ft 27 kts 70°
2026-05-07 09:42 50.04073 8.56045 363 ft 23 kts 71°
2026-05-07 09:43 50.04130 8.56284 362 ft 25 kts 70°
2026-05-07 09:43 50.04193 8.56547 365 ft 27 kts 70°
2026-05-07 09:43 50.04241 8.56741 370 ft 14 kts 64°
2026-05-07 09:43 50.04327 8.56819 370 ft 16 kts 14°
2026-05-07 09:44 50.04451 8.56851 368 ft 22 kts
2026-05-07 09:44 50.04606 8.56906 368 ft 14 kts 15°
2026-05-07 09:44 50.04707 8.56968 366 ft 17 kts 24°
2026-05-07 09:44 50.04787 8.57025 368 ft 13 kts 24°
2026-05-07 09:45 50.04839 8.57074 368 ft 3 kts 54°
2026-05-07 09:45 50.04833 8.57109 366 ft 6 kts 100°
2026-05-07 09:45 50.04822 8.57150 366 ft 0 kts 112°
2026-05-07 09:46 50.04822 8.57151 366 ft 1 kts 112°
2026-05-07 09:46 50.04821 8.57154 366 ft 0 kts 112°
2026-05-07 09:46 50.04818 8.57166 365 ft 0 kts 112°